TimeCDT,TemperatureF,Dew PointF,Humidity,Sea Level PressureIn,VisibilityMPH,Wind Direction,Wind SpeedMPH,Gust SpeedMPH,PrecipitationIn,Events,Conditions,WindDirDegrees,DateUTC
12:52 AM,71.1,66.9,87,29.97,10.0,North,3.5,-,N/A,,Overcast,10,2012-09-01 05:52:00
1:52 AM,70.0,66.9,90,29.97,10.0,NNW,3.5,-,N/A,,Overcast,330,2012-09-01 06:52:00
2:52 AM,71.1,66.0,84,29.97,10.0,North,8.1,-,N/A,,Overcast,360,2012-09-01 07:52:00
3:52 AM,69.1,66.0,90,29.97,10.0,North,6.9,-,N/A,,Overcast,360,2012-09-01 08:52:00
4:52 AM,68.0,66.0,93,29.98,10.0,North,4.6,-,N/A,,Overcast,360,2012-09-01 09:52:00
5:52 AM,66.9,64.9,93,29.98,10.0,North,6.9,-,N/A,,Mostly Cloudy,350,2012-09-01 10:52:00
6:52 AM,66.2,64.4,94,30.02,10.0,North,5.8,-,N/A,,Mostly Cloudy,360,2012-09-01 11:52:00
7:52 AM,66.9,64.9,93,30.01,8.0,North,6.9,-,N/A,,Mostly Cloudy,360,2012-09-01 12:52:00
8:52 AM,71.1,66.9,87,30.01,8.0,North,6.9,-,N/A,,Mostly Cloudy,350,2012-09-01 13:52:00
9:52 AM,75.0,66.9,76,30.01,10.0,NNE,6.9,-,N/A,,Scattered Clouds,20,2012-09-01 14:52:00
10:52 AM,81.0,68.0,65,30.00,10.0,North,6.9,-,N/A,,Scattered Clouds,10,2012-09-01 15:52:00
11:52 AM,87.1,66.0,49,29.99,10.0,NNE,9.2,-,N/A,,Scattered Clouds,30,2012-09-01 16:52:00
12:52 PM,89.1,64.9,45,29.98,10.0,NE,10.4,16.1,N/A,,Scattered Clouds,40,2012-09-01 17:52:00
1:52 PM,89.1,64.9,45,29.97,10.0,NE,10.4,-,N/A,,Scattered Clouds,50,2012-09-01 18:52:00
2:52 PM,91.0,64.0,41,29.95,10.0,NE,12.7,17.3,N/A,,Scattered Clouds,50,2012-09-01 19:52:00
3:52 PM,91.0,63.0,39,29.94,10.0,ENE,9.2,-,N/A,,Scattered Clouds,70,2012-09-01 20:52:00
4:52 PM,91.0,63.0,39,29.92,10.0,ENE,12.7,-,N/A,,Scattered Clouds,70,2012-09-01 21:52:00
5:52 PM,90.0,63.0,40,29.91,10.0,ENE,9.2,-,N/A,,Scattered Clouds,60,2012-09-01 22:52:00
6:52 PM,89.1,63.0,42,29.91,10.0,ENE,9.2,-,N/A,,Scattered Clouds,60,2012-09-01 23:52:00
7:52 PM,84.9,63.0,48,29.91,10.0,ENE,6.9,-,N/A,,Partly Cloudy,70,2012-09-02 00:52:00
8:52 PM,82.0,64.0,54,29.93,10.0,East,4.6,-,N/A,,Partly Cloudy,90,2012-09-02 01:52:00
9:52 PM,79.0,64.9,62,29.95,10.0,East,6.9,-,N/A,,Partly Cloudy,100,2012-09-02 02:52:00
10:52 PM,77.0,64.0,64,29.95,10.0,ESE,12.7,-,N/A,,Clear,110,2012-09-02 03:52:00
11:52 PM,73.9,62.1,66,29.96,10.0,SE,9.2,-,N/A,,Clear,140,2012-09-02 04:52:00